This is the latest recevied weather packets stored in our database for station/object KJ5IIV. If no packets are shown the sender has not sent any weather packets the latest 10 day(s).
| Time | Temp. | Humidity | Pressure | Rain* | Wind** | Luminosity | Snow |
|---|---|---|---|---|---|---|---|
| 1777300681 | 26.11° C | 81% | 1009.2 hPa | 0 mm | - | 364 W/m² | - |
| 1777300378 | 25.56° C | 82% | 1009.3 hPa | 0 mm | - | 439 W/m² | - |
| 1777300075 | 25.56° C | 83% | 1009.2 hPa | 0 mm | - | 205 W/m² | - |
| 1777299772 | 25° C | 84% | 1009.3 hPa | 0 mm | - | 478 W/m² | - |
| 1777299469 | 25° C | 83% | 1009.4 hPa | 0 mm | - | 60 W/m² | - |
| 1777299167 | 25° C | 84% | 1009.3 hPa | 0 mm | - | 88 W/m² | - |
| 1777298864 | 25° C | 83% | 1009.4 hPa | 0 mm | - | 61 W/m² | - |
| 1777298560 | 25° C | 84% | 1009.4 hPa | 0 mm | - | 73 W/m² | - |
| 1777298257 | 25° C | 84% | 1009.5 hPa | 0 mm | - | 68 W/m² | - |
| 1777297953 | 24.44° C | 84% | 1009.3 hPa | 0 mm | - | 47 W/m² | - |
| 1777297649 | 24.44° C | 86% | 1009.2 hPa | 0 mm | - | 54 W/m² | - |
| 1777297347 | 24.44° C | 87% | 1009.5 hPa | 0 mm | - | 46 W/m² | - |
| 1777297043 | 24.44° C | 87% | 1009.5 hPa | 0 mm | - | 57 W/m² | - |
| 1777296740 | 24.44° C | 87% | 1009.6 hPa | 0 mm | - | 45 W/m² | - |
| 1777296436 | 24.44° C | 88% | 1009.6 hPa | 0 mm | - | 39 W/m² | - |
| 1777296132 | 24.44° C | 88% | 1009.6 hPa | 0 mm | - | 30 W/m² | - |
| 1777295829 | 24.44° C | 88% | 1009.4 hPa | 0 mm | - | 35 W/m² | - |
| 1777295527 | 24.44° C | 88% | 1009.3 hPa | 0 mm | - | 27 W/m² | - |
| 1777295224 | 24.44° C | 88% | 1009.4 hPa | 0 mm | - | 37 W/m² | - |
| 1777294922 | 24.44° C | 88% | 1009.2 hPa | 0 mm | - | 35 W/m² | - |
| 1777294622 | 24.44° C | 88% | 1009.2 hPa | 0 mm | - | 32 W/m² | - |
| 1777294318 | 24.44° C | 87% | 1009 hPa | 0 mm | - | 39 W/m² | - |
| 1777294015 | 24.44° C | 87% | 1008.4 hPa | 0 mm | - | 51 W/m² | - |
| 1777293711 | 24.44° C | 87% | 1008.1 hPa | 0 mm | - | 54 W/m² | - |
| 1777293406 | 24.44° C | 87% | 1008 hPa | 0 mm | - | 55 W/m² | - |
* Rain latest hour (hover to see other rain measurements)
** Current wind speed in m/s (hover to see current wind gust speed)